| time (UTC) | temp F | wind direction | speed MPH | gust MPH | rain 1hr in | rain 24hr in | rain mn in | humidity % | barometer mb |
| 20260505101803 | 59 | 275 | 18.0 | 31.0 | 0.00 | 0.00 | 0.00 | 59 | 1010.4 |
| 20260505101303 | 59 | 251 | 13.0 | 29.0 | 0.00 | 0.00 | 0.00 | 61 | 1010.5 |
| 20260505100803 | 59 | 276 | 17.0 | 31.0 | 0.00 | 0.00 | 0.00 | 59 | 1010.3 |
| 20260505100303 | 59 | 278 | 17.0 | 31.0 | 0.00 | 0.00 | 0.00 | 58 | 1010.4 |
| 20260505095304 | 60 | 281 | 15.0 | 29.0 | 0.00 | 0.00 | 0.00 | 59 | 1010.2 |
| 20260505094803 | 60 | 267 | 15.0 | 33.0 | 0.00 | 0.00 | 0.00 | 58 | 1010.3 |
| 20260505094302 | 60 | 267 | 15.0 | 29.0 | 0.00 | 0.00 | 0.00 | 58 | 1010.1 |
| 20260505093803 | 60 | 283 | 14.0 | 26.0 | 0.00 | 0.00 | 0.00 | 59 | 1010.2 |
| 20260505093303 | 60 | 291 | 17.0 | 31.0 | 0.00 | 0.00 | 0.00 | 57 | 1009.9 |
| 20260505092305 | 60 | 274 | 14.0 | 32.0 | 0.00 | 0.00 | 0.00 | 59 | 1010.0 |
| 20260505091802 | 60 | 272 | 14.0 | 25.0 | 0.00 | 0.00 | 0.00 | 59 | 1010.1 |
| 20260505091303 | 61 | 276 | 16.0 | 30.0 | 0.00 | 0.00 | 0.00 | 57 | 1010.0 |
| 20260505090802 | 61 | 263 | 13.0 | 25.0 | 0.00 | 0.00 | 0.00 | 59 | 1009.9 |
| 20260505090303 | 61 | 287 | 16.0 | 30.0 | 0.00 | 0.00 | 0.00 | 58 | 1010.0 |
| 20260505085802 | 61 | 280 | 15.0 | 30.0 | 0.00 | 0.00 | 0.00 | 58 | 1009.8 |
| 20260505084802 | 62 | 286 | 13.0 | 24.0 | 0.00 | 0.00 | 0.00 | 58 | 1009.7 |
| 20260505084303 | 62 | 268 | 14.0 | 26.0 | 0.00 | 0.00 | 0.00 | 58 | 1009.6 |
| 20260505083303 | 62 | 269 | 11.0 | 28.0 | 0.00 | 0.00 | 0.00 | 57 | 1009.7 |
| 20260505082803 | 63 | 266 | 10.0 | 23.0 | 0.00 | 0.00 | 0.00 | 57 | 1009.7 |
| 20260505082304 | 63 | 276 | 14.0 | 23.0 | 0.00 | 0.00 | 0.00 | 56 | 1009.7 |
| 20260505081803 | 63 | 256 | 11.0 | 21.0 | 0.00 | 0.00 | 0.00 | 56 | 1009.7 |
| 20260505081303 | 63 | 253 | 12.0 | 23.0 | 0.00 | 0.00 | 0.00 | 57 | 1009.6 |
| 20260505080802 | 63 | 255 | 9.0 | 20.0 | 0.00 | 0.00 | 0.00 | 56 | 1009.5 |
| 20260505080303 | 64 | 280 | 11.0 | 22.0 | 0.00 | 0.00 | 0.00 | 56 | 1009.5 |
| 20260505075803 | 64 | 280 | 10.0 | 21.0 | 0.00 | 0.00 | 0.00 | 56 | 1009.5 |
| 20260505075304 | 64 | 274 | 9.0 | 24.0 | 0.00 | 0.00 | 0.00 | 57 | 1009.3 |
| 20260505074303 | 64 | 263 | 10.0 | 17.0 | 0.00 | 0.00 | 0.00 | 57 | 1009.3 |
| 20260505073803 | 64 | 271 | 9.0 | 25.0 | 0.00 | 0.00 | 0.00 | 58 | 1009.3 |
| 20260505073303 | 64 | 270 | 11.0 | 24.0 | 0.00 | 0.00 | 0.00 | 58 | 1009.3 |
| 20260505072803 | 65 | 236 | 9.0 | 20.0 | 0.00 | 0.00 | 0.00 | 58 | 1009.2 |
| 20260505072305 | 65 | 278 | 11.0 | 21.0 | 0.00 | 0.00 | 0.00 | 57 | 1009.1 |
| 20260505071303 | 65 | 272 | 10.0 | 23.0 | 0.00 | 0.00 | 0.00 | 57 | 1009.1 |
| 20260505070802 | 65 | 292 | 10.0 | 21.0 | 0.00 | 0.00 | 0.00 | 57 | 1009.0 |
| 20260505070303 | 65 | 280 | 9.0 | 17.0 | 0.00 | 0.00 | 0.00 | 57 | 1009.0 |
| 20260505065803 | 65 | 265 | 10.0 | 18.0 | 0.00 | 0.00 | 0.00 | 58 | 1009.0 |
| 20260505065304 | 65 | 273 | 12.0 | 22.0 | 0.00 | 0.00 | 0.00 | 56 | 1008.9 |
| 20260505064804 | 65 | 274 | 6.0 | 17.0 | 0.00 | 0.00 | 0.00 | 58 | 1009.0 |
| 20260505064302 | 65 | 264 | 10.0 | 24.0 | 0.00 | 0.00 | 0.00 | 57 | 1008.9 |
| 20260505063302 | 66 | 279 | 12.0 | 22.0 | 0.00 | 0.00 | 0.00 | 57 | 1008.8 |
| 20260505062803 | 66 | 265 | 9.0 | 24.0 | 0.00 | 0.00 | 0.00 | 58 | 1008.8 |
| 20260505062304 | 66 | 276 | 9.0 | 23.0 | 0.00 | 0.00 | 0.00 | 57 | 1008.8 |
| 20260505061803 | 66 | 275 | 11.0 | 21.0 | 0.00 | 0.00 | 0.00 | 56 | 1008.7 |
| 20260505061303 | 66 | 272 | 11.0 | 20.0 | 0.00 | 0.00 | 0.00 | 57 | 1008.6 |
| 20260505060303 | 66 | 261 | 14.0 | 26.0 | 0.00 | 0.00 | 0.00 | 56 | 1008.6 |
| 20260505055803 | 66 | 272 | 10.0 | 25.0 | 0.00 | 0.00 | 0.00 | 56 | 1008.7 |
| 20260505055304 | 67 | 268 | 11.0 | 23.0 | 0.00 | 0.00 | 0.00 | 55 | 1008.7 |
| 20260505053803 | 67 | 275 | 9.0 | 20.0 | 0.00 | 0.00 | 0.00 | 55 | 1008.6 |
| 20260505053303 | 67 | 274 | 10.0 | 21.0 | 0.00 | 0.00 | 0.00 | 55 | 1008.5 |
| 20260505052304 | 67 | 274 | 10.0 | 20.0 | 0.00 | 0.00 | 0.00 | 55 | 1008.5 |
| 20260505051303 | 67 | 275 | 11.0 | 21.0 | 0.00 | 0.00 | 0.00 | 55 | 1008.5 |
| 20260505050802 | 67 | 271 | 12.0 | 25.0 | 0.00 | 0.00 | 0.00 | 54 | 1008.4 |
| 20260505050302 | 67 | 298 | 8.0 | 20.0 | 0.00 | 0.00 | 0.00 | 55 | 1008.4 |
| 20260505041302 | 68 | 265 | 9.0 | 18.0 | 0.00 | 0.00 | 0.00 | 52 | 1007.8 |
| 20260505040803 | 68 | 264 | 10.0 | 20.0 | 0.00 | 0.00 | 0.00 | 51 | 1007.7 |
| 20260505040303 | 68 | 267 | 12.0 | 22.0 | 0.00 | 0.00 | 0.00 | 51 | 1007.6 |
| 20260505035802 | 68 | 262 | 9.0 | 20.0 | 0.00 | 0.00 | 0.00 | 50 | 1007.6 |
| 20260505035304 | 68 | 254 | 12.0 | 20.0 | 0.00 | 0.00 | 0.00 | 50 | 1007.6 |
| 20260505034803 | 68 | 264 | 7.0 | 20.0 | 0.00 | 0.00 | 0.00 | 50 | 1007.5 |
| 20260505034303 | 68 | 282 | 10.0 | 24.0 | 0.00 | 0.00 | 0.00 | 49 | 1007.4 |
| 20260505033802 | 69 | 265 | 10.0 | 21.0 | 0.00 | 0.00 | 0.00 | 49 | 1007.4 |
| 20260505033303 | 69 | 295 | 12.0 | 25.0 | 0.00 | 0.00 | 0.00 | 49 | 1007.3 |
| 20260505032802 | 69 | 264 | 9.0 | 20.0 | 0.00 | 0.00 | 0.00 | 48 | 1007.1 |
| 20260505032304 | 69 | 281 | 9.0 | 22.0 | 0.00 | 0.00 | 0.00 | 48 | 1007.1 |
| 20260505031802 | 69 | 247 | 7.0 | 18.0 | 0.00 | 0.00 | 0.00 | 48 | 1007.0 |
| 20260505031303 | 69 | 306 | 6.0 | 14.0 | 0.00 | 0.00 | 0.00 | 48 | 1007.0 |
| 20260505030803 | 69 | 268 | 12.0 | 23.0 | 0.00 | 0.00 | 0.00 | 47 | 1006.8 |
| 20260505025803 | 69 | 309 | 8.0 | 20.0 | 0.00 | 0.00 | 0.00 | 47 | 1006.6 |
| 20260505025304 | 69 | 311 | 7.0 | 23.0 | 0.00 | 0.00 | 0.00 | 47 | 1006.6 |
| 20260505024803 | 70 | 283 | 9.0 | 24.0 | 0.00 | 0.00 | 0.00 | 47 | 1006.5 |
| 20260505023804 | 70 | 308 | 8.0 | 24.0 | 0.00 | 0.00 | 0.00 | 46 | 1006.4 |
| 20260505022304 | 71 | 305 | 9.0 | 18.0 | 0.00 | 0.00 | 0.00 | 45 | 1006.3 |
| 20260505020303 | 71 | 304 | 7.0 | 16.0 | 0.00 | 0.00 | 0.00 | 45 | 1006.4 |
| 20260505015803 | 71 | 299 | 9.0 | 20.0 | 0.00 | 0.00 | 0.00 | 44 | 1006.4 |
| 20260505015304 | 72 | 280 | 7.0 | 20.0 | 0.00 | 0.00 | 0.00 | 44 | 1006.5 |
| 20260505014802 | 72 | 280 | 7.0 | 18.0 | 0.00 | 0.00 | 0.00 | 44 | 1006.4 |
| 20260505014303 | 72 | 279 | 9.0 | 22.0 | 0.00 | 0.00 | 0.00 | 44 | 1006.3 |
| 20260505012803 | 72 | 272 | 9.0 | 23.0 | 0.00 | 0.00 | 0.00 | 44 | 1006.4 |
| 20260505012304 | 72 | 265 | 8.0 | 18.0 | 0.00 | 0.00 | 0.00 | 43 | 1006.3 |
| 20260505011803 | 72 | 286 | 14.0 | 24.0 | 0.00 | 0.00 | 0.00 | 43 | 1006.4 |
| 20260505011303 | 72 | 282 | 12.0 | 25.0 | 0.00 | 0.00 | 0.00 | 43 | 1006.5 |
| 20260505010803 | 72 | 307 | 9.0 | 21.0 | 0.00 | 0.00 | 0.00 | 43 | 1006.3 |
| 20260505005803 | 72 | 293 | 7.0 | 23.0 | 0.00 | 0.00 | 0.00 | 44 | 1006.5 |
| 20260505005303 | 72 | 267 | 14.0 | 26.0 | 0.00 | 0.00 | 0.00 | 43 | 1006.4 |
| 20260505004803 | 72 | 267 | 13.0 | 24.0 | 0.00 | 0.00 | 0.00 | 43 | 1006.6 |
| 20260505004303 | 73 | 299 | 13.0 | 22.0 | 0.00 | 0.00 | 0.00 | 43 | 1006.6 |
| 20260505003803 | 73 | 278 | 12.0 | 23.0 | 0.00 | 0.00 | 0.00 | 43 | 1006.5 |
| 20260505002803 | 73 | 281 | 12.0 | 23.0 | 0.00 | 0.00 | 0.00 | 42 | 1006.6 |
| 20260505002304 | 73 | 288 | 13.0 | 29.0 | 0.00 | 0.00 | 0.00 | 42 | 1006.6 |
| 20260505001802 | 73 | 299 | 12.0 | 23.0 | 0.00 | 0.00 | 0.00 | 42 | 1006.4 |
| 20260505001304 | 73 | 290 | 13.0 | 29.0 | 0.00 | 0.00 | 0.00 | 42 | 1006.5 |
| 20260505000803 | 73 | 287 | 11.0 | 25.0 | 0.00 | 0.00 | 0.00 | 41 | 1006.5 |
| 20260505000302 | 73 | 272 | 17.0 | 25.0 | 0.00 | 0.00 | 0.00 | 41 | 1006.5 |
| 20260504235803 | 74 | 267 | 12.0 | 23.0 | 0.00 | 0.00 | 0.00 | 40 | 1006.5 |
| 20260504235304 | 74 | 267 | 11.0 | 20.0 | 0.00 | 0.00 | 0.00 | 40 | 1006.6 |
| 20260504234803 | 74 | 258 | 11.0 | 24.0 | 0.00 | 0.00 | 0.00 | 40 | 1006.6 |
| 20260504234303 | 74 | 251 | 9.0 | 20.0 | 0.00 | 0.00 | 0.00 | 39 | 1006.7 |
| 20260504233802 | 74 | 290 | 10.0 | 23.0 | 0.00 | 0.00 | 0.00 | 40 | 1006.5 |
| 20260504233304 | 74 | 269 | 12.0 | 24.0 | 0.00 | 0.00 | 0.00 | 41 | 1006.5 |
| 20260504232802 | 74 | 278 | 12.0 | 25.0 | 0.00 | 0.00 | 0.00 | 40 | 1006.5 |
| 20260504231802 | 74 | 262 | 13.0 | 25.0 | 0.00 | 0.00 | 0.00 | 40 | 1006.5 |
| 20260504231303 | 74 | 267 | 12.0 | 24.0 | 0.00 | 0.00 | 0.00 | 40 | 1006.5 |
| 20260504230803 | 74 | 289 | 14.0 | 29.0 | 0.00 | 0.00 | 0.00 | 41 | 1006.6 |
| 20260504225803 | 73 | 266 | 10.0 | 28.0 | 0.00 | 0.00 | 0.00 | 40 | 1006.7 |
| 20260504225304 | 73 | 284 | 15.0 | 26.0 | 0.00 | 0.00 | 0.00 | 40 | 1006.6 |
| 20260504224803 | 73 | 280 | 13.0 | 35.0 | 0.00 | 0.00 | 0.00 | 40 | 1006.9 |
| 20260504223803 | 73 | 269 | 16.0 | 24.0 | 0.00 | 0.00 | 0.00 | 41 | 1006.8 |
| 20260504223303 | 73 | 276 | 14.0 | 23.0 | 0.00 | 0.00 | 0.00 | 41 | 1007.0 |
| 20260504222803 | 73 | 270 | 12.0 | 21.0 | 0.00 | 0.00 | 0.00 | 41 | 1007.2 |
| 20260504222304 | 73 | 273 | 14.0 | 28.0 | 0.00 | 0.00 | 0.00 | 41 | 1007.1 |
| 20260504221303 | 73 | 263 | 11.0 | 23.0 | 0.00 | 0.00 | 0.00 | 41 | 1007.2 |
| 20260504220803 | 73 | 286 | 9.0 | 23.0 | 0.00 | 0.00 | 0.00 | 41 | 1007.3 |
| 20260504220303 | 73 | 288 | 12.0 | 26.0 | 0.00 | 0.00 | 0.00 | 42 | 1007.2 |
| 20260504215803 | 72 | 305 | 7.0 | 26.0 | 0.00 | 0.00 | 0.00 | 42 | 1007.3 |
| 20260504215304 | 72 | 259 | 12.0 | 21.0 | 0.00 | 0.00 | 0.00 | 42 | 1007.4 |
| 20260504214303 | 72 | 285 | 13.0 | 22.0 | 0.00 | 0.00 | 0.00 | 42 | 1007.4 |
| 20260504213303 | 72 | 296 | 7.0 | 15.0 | 0.00 | 0.00 | 0.00 | 42 | 1007.6 |
| 20260504212803 | 71 | 243 | 12.0 | 23.0 | 0.00 | 0.00 | 0.00 | 43 | 1007.7 |
| 20260504212304 | 71 | 272 | 12.0 | 28.0 | 0.00 | 0.00 | 0.00 | 43 | 1007.8 |
| 20260504211802 | 71 | 262 | 12.0 | 23.0 | 0.00 | 0.00 | 0.00 | 43 | 1007.9 |
| 20260504211303 | 71 | 276 | 12.0 | 29.0 | 0.00 | 0.00 | 0.00 | 43 | 1007.8 |
| 20260504210803 | 71 | 268 | 13.0 | 24.0 | 0.00 | 0.00 | 0.00 | 43 | 1008.0 |
| 20260504210303 | 70 | 259 | 13.0 | 28.0 | 0.00 | 0.00 | 0.00 | 44 | 1007.9 |
| 20260504205803 | 70 | 273 | 16.0 | 26.0 | 0.00 | 0.00 | 0.00 | 44 | 1007.8 |
| 20260504205304 | 70 | 285 | 17.0 | 25.0 | 0.00 | 0.00 | 0.00 | 43 | 1008.0 |
| 20260504204803 | 70 | 285 | 14.0 | 28.0 | 0.00 | 0.00 | 0.00 | 44 | 1008.0 |
| 20260504204303 | 70 | 275 | 11.0 | 31.0 | 0.00 | 0.00 | 0.00 | 44 | 1008.1 |
| 20260504203804 | 69 | 293 | 13.0 | 30.0 | 0.00 | 0.00 | 0.00 | 44 | 1008.2 |
| 20260504203304 | 69 | 275 | 15.0 | 32.0 | 0.00 | 0.00 | 0.00 | 44 | 1008.1 |
| 20260504202803 | 69 | 293 | 14.0 | 31.0 | 0.00 | 0.00 | 0.00 | 45 | 1008.1 |
| 20260504201803 | 69 | 281 | 13.0 | 31.0 | 0.00 | 0.00 | 0.00 | 44 | 1008.2 |
| 20260504201303 | 69 | 250 | 15.0 | 29.0 | 0.00 | 0.00 | 0.00 | 45 | 1008.3 |
| 20260504200804 | 69 | 271 | 17.0 | 31.0 | 0.00 | 0.00 | 0.00 | 45 | 1008.3 |
| 20260504200303 | 69 | 258 | 14.0 | 26.0 | 0.00 | 0.00 | 0.00 | 44 | 1008.3 |
| 20260504195304 | 69 | 259 | 10.0 | 24.0 | 0.00 | 0.00 | 0.00 | 44 | 1008.3 |
| 20260504193803 | 69 | 269 | 11.0 | 21.0 | 0.00 | 0.00 | 0.00 | 44 | 1008.4 |
| 20260504193303 | 69 | 275 | 15.0 | 29.0 | 0.00 | 0.00 | 0.00 | 45 | 1008.4 |
| 20260504192803 | 69 | 270 | 15.0 | 26.0 | 0.00 | 0.00 | 0.00 | 44 | 1008.4 |
| 20260504192304 | 68 | 287 | 10.0 | 25.0 | 0.00 | 0.00 | 0.00 | 45 | 1008.4 |
| 20260504191803 | 69 | 281 | 14.0 | 26.0 | 0.00 | 0.00 | 0.00 | 45 | 1008.5 |
| 20260504191303 | 69 | 259 | 15.0 | 31.0 | 0.00 | 0.00 | 0.00 | 45 | 1008.6 |
| 20260504190802 | 68 | 280 | 12.0 | 23.0 | 0.00 | 0.00 | 0.00 | 44 | 1008.4 |
| 20260504190303 | 68 | 261 | 13.0 | 25.0 | 0.00 | 0.00 | 0.00 | 44 | 1008.6 |
| 20260504185803 | 68 | 275 | 11.0 | 28.0 | 0.00 | 0.00 | 0.00 | 45 | 1008.6 |
| 20260504185304 | 68 | 274 | 14.0 | 25.0 | 0.00 | 0.00 | 0.00 | 46 | 1008.6 |
| 20260504184803 | 68 | 284 | 15.0 | 28.0 | 0.00 | 0.00 | 0.00 | 46 | 1008.6 |
| 20260504184303 | 68 | 267 | 13.0 | 22.0 | 0.00 | 0.00 | 0.00 | 46 | 1008.6 |
| 20260504183803 | 67 | 278 | 9.0 | 21.0 | 0.00 | 0.00 | 0.00 | 46 | 1008.5 |
| 20260504183303 | 67 | 290 | 12.0 | 24.0 | 0.00 | 0.00 | 0.00 | 47 | 1008.6 |
| 20260504182803 | 67 | 280 | 10.0 | 22.0 | 0.00 | 0.00 | 0.00 | 48 | 1008.7 |
| 20260504182304 | 67 | 268 | 14.0 | 23.0 | 0.00 | 0.00 | 0.00 | 48 | 1008.6 |
| 20260504181803 | 66 | 276 | 12.0 | 22.0 | 0.00 | 0.00 | 0.00 | 49 | 1008.6 |
| 20260504181304 | 66 | 248 | 12.0 | 20.0 | 0.00 | 0.00 | 0.00 | 49 | 1008.6 |
| 20260504180803 | 66 | 260 | 10.0 | 21.0 | 0.00 | 0.00 | 0.00 | 49 | 1008.8 |
| 20260504180303 | 66 | 274 | 12.0 | 23.0 | 0.00 | 0.00 | 0.00 | 49 | 1008.9 |
| 20260504175803 | 65 | 281 | 13.0 | 30.0 | 0.00 | 0.00 | 0.00 | 49 | 1008.9 |
| 20260504175304 | 65 | 288 | 13.0 | 23.0 | 0.00 | 0.00 | 0.00 | 49 | 1008.9 |
| 20260504174303 | 65 | 271 | 12.0 | 24.0 | 0.00 | 0.00 | 0.00 | 50 | 1008.9 |
| 20260504173803 | 65 | 266 | 12.0 | 32.0 | 0.00 | 0.00 | 0.00 | 50 | 1008.8 |
| 20260504173303 | 65 | 276 | 12.0 | 28.0 | 0.00 | 0.00 | 0.00 | 50 | 1008.8 |
| 20260504172804 | 65 | 291 | 13.0 | 28.0 | 0.00 | 0.00 | 0.00 | 50 | 1008.8 |
| 20260504171303 | 64 | 262 | 8.0 | 20.0 | 0.00 | 0.00 | 0.00 | 51 | 1008.8 |
| 20260504170803 | 64 | 264 | 12.0 | 24.0 | 0.00 | 0.00 | 0.00 | 51 | 1008.8 |
| 20260504170303 | 64 | 276 | 9.0 | 21.0 | 0.00 | 0.00 | 0.00 | 52 | 1008.8 |
| 20260504160303 | 62 | 263 | 13.0 | 24.0 | 0.00 | 0.00 | 0.00 | 53 | 1009.1 |
| 20260504150804 | 62 | 253 | 8.0 | 21.0 | 0.00 | 0.00 | 0.00 | 53 | 1008.9 |
| 20260504150303 | 62 | 231 | 12.0 | 26.0 | 0.00 | 0.00 | 0.00 | 54 | 1008.9 |
| 20260504141303 | 63 | 299 | 14.0 | 25.0 | 0.00 | 0.00 | 0.00 | 50 | 1008.5 |
| 20260504140303 | 63 | 306 | 9.0 | 21.0 | 0.00 | 0.00 | 0.00 | 52 | 1008.5 |
| 20260504130803 | 56 | 114 | 1.0 | 3.0 | 0.00 | 0.00 | 0.00 | 64 | 1008.1 |
| 20260504120304 | 58 | 301 | 5.0 | 10.0 | 0.00 | 0.00 | 0.00 | 59 | 1007.8 |